Simultaneous Nadir Overpasses (SNOs) Predictions

Prediction of SNOs between FY3D and AQUA Satellite Orbit:

Table of predicted SNOs for the next 14.0 days since TLE Epoch: 12/5/2025
Index Date (FY3D) Time (FY3D) Lat,Lon (FY3D) SZA (FY3D ) Date (AQUA) Time (AQUA) Lat,Lon (AQUA) SZA (AQUA ) Distance(km) Time Diff (sec)
1 12/08/2025 05:51:37 79.39, 86.19 102.10 12/08/2025 05:52:03 79.40, 86.06 102.11 2.92 26
2 12/08/2025 06:42:15 -79.20,-104.88 78.11 12/08/2025 06:41:14 -79.20,-104.84 78.12 0.71 61
3 12/10/2025 14:31:32 -79.55, 134.91 77.51 12/10/2025 14:32:40 -79.55, 134.93 77.51 0.38 68
4 12/10/2025 15:22:11 79.35, -56.03 102.28 12/10/2025 15:21:52 79.34, -55.92 102.27 2.59 19
5 12/13/2025 00:02:01 -79.36, -5.98 77.53 12/13/2025 00:02:24 -79.36, -6.12 77.53 2.93 23
6 12/13/2025 00:52:40 79.15, 163.02 102.25 12/13/2025 00:51:36 79.16, 162.97 102.25 1.05 64
7 12/15/2025 08:41:56 79.52, 42.72 102.79 12/15/2025 08:42:58 79.52, 42.71 102.78 0.22 62
8 12/15/2025 09:32:31 -79.23,-147.51 77.53 12/15/2025 09:32:07 -79.24,-147.63 77.52 2.52 24
9 12/17/2025 18:12:25 79.34, -98.27 102.68 12/17/2025 18:12:39 79.34, -98.40 102.69 2.80 14



Historial Predications of SNOs between FY3D and AQUA
